Location: Unspecified
(54.1780°N, 0.0000°E)
Time: 10:50:34
(UTC+00:00)

S-56A Canister/Altair - Pass Details

Date: 19 June 2019
Orbit: 632 x 2500 km, 38.9° (Epoch: 20 July)

Event Time Altitude Azimuth Distance (km) Brightness Sun altitude
Rises 17:15:39 0° 224° (SW) 4,425 11.9 25.4°
Reaches altitude 10° 17:20:16 10° 205° (SSW) 3,054 10.9 24.7°
Maximum altitude 17:24:19 16° 171° (S) 2,314 9.9 24.1°
Drops below altitude 10° 17:27:42 10° 134° (SE) 2,462 9.8 23.6°
Sets 17:30:49 0° 112° (ESE) 3,187 10.1 23.2°
